(°C)
15°
14°
13°
12°
11°
10°
(°C)
13°
12°
11°
10°
ENE
ENE
NE
NE
E
SSE
SE
(km/h)
7-11
6-8
5-8
4-9
3-9
4-8
4-7
(mm)
0
0
0
0
0
0
0
(%)
0
0
0
0
0
0
0

Elevación del sol

/ 11.2°
sun-icon
UV 5
06:59
19:15
Gibosa menguante (198°)
20:07
08:16

METAR a Innsbruck (LOWI)

Hora Condiciones Temperatura/
Punto de condensación
Viento Visibilidad Tiempo Nubes Presión Cambiar Bruto
VFR 16°C / 9°C 90º variable 060º to 120º 7kt >10km - Few Clouds 6000ft 1025 No Significant change LOWI 221550Z 09007KT 060V120 9999 FEW060 16/09 Q1025 NOSIG
VFR 17°C / 8°C 80º variable 050º to 120º 9kt >10km - Few Clouds 6000ft 1025 No Significant change LOWI 221520Z 08009KT 050V120 9999 FEW060 17/08 Q1025 NOSIG
VFR 17°C / 8°C 70º variable 040º to 100º 10kt >10km - Few Clouds 6000ft 1026 No Significant change LOWI 221450Z 07010KT 040V100 9999 FEW060 17/08 Q1026 NOSIG
VFR 18°C / 8°C 70º variable 050º to 110º 11kt >10km - Few Clouds 6000ft 1025 No Significant change LOWI 221420Z 07011KT 050V110 9999 FEW060 18/08 Q1025 NOSIG
VFR 18°C / 8°C 80º variable 040º to 140º 6kt >10km - Few Clouds 6000ft 1025 No Significant change LOWI 221350Z 08006KT 040V140 9999 FEW060 18/08 Q1025 NOSIG
VFR 19°C / 9°C 70º variable 040º to 100º 6kt >10km - Few Clouds 5000ft 1026 No Significant change LOWI 221320Z 07006KT 040V100 9999 FEW050 19/09 Q1026 NOSIG
VFR 18°C / 7°C 80º variable 010º to 120º 5kt >10km - Few Clouds 5000ft 1026 No Significant change LOWI 221250Z 08005KT 010V120 9999 FEW050 18/07 Q1026 NOSIG
VFR 18°C / 8°C 110º variable 040º to 180º 5kt >10km - Few Clouds 4500ft 1026 No Significant change LOWI 221220Z 11005KT 040V180 9999 FEW045 18/08 Q1026 NOSIG
VFR 18°C / 8°C variable 2kt >10km - Few Clouds 4500ft 1027 No Significant change LOWI 221150Z VRB02KT 9999 FEW045 18/08 Q1027 NOSIG
VFR 17°C / 8°C variable 3kt >10km - Few Clouds 4500ft 1027 No Significant change LOWI 221120Z VRB03KT 9999 FEW045 17/08 Q1027 NOSIG
VFR 16°C / 7°C variable 2kt >10km - Few Clouds 4000ft 1027 No Significant change LOWI 221050Z VRB02KT 9999 FEW040 16/07 Q1027 NOSIG
VFR 16°C / 9°C variable 2kt >10km - Few Clouds 3500ft 1028 No Significant change LOWI 221020Z VRB02KT 9999 FEW035 16/09 Q1028 NOSIG
VFR 15°C / 8°C variable 2kt >10km - Few Clouds 3000ft 1028 No Significant change LOWI 220950Z VRB02KT 9999 FEW030 15/08 Q1028 NOSIG
VFR 14°C / 8°C variable 1kt >10km - Few Clouds 3000ft 1028 No Significant change LOWI 220920Z VRB01KT 9999 FEW030 14/08 Q1028 NOSIG
VFR 14°C / 8°C variable 1kt >10km - Scattered Clouds 3000ft 1029 No Significant change LOWI 220850Z VRB01KT 9999 SCT030 14/08 Q1029 NOSIG
VFR 14°C / 8°C variable 2kt >10km - Scattered Clouds 2500ft 1029 No Significant change LOWI 220820Z VRB02KT 9999 SCT025 14/08 Q1029 NOSIG
VFR 13°C / 9°C 100º variable 060º to 130º 4kt >10km - Few Clouds 1500ft 1029 No Significant change LOWI 220750Z 10004KT 060V130 9999 FEW015 BKN040 13/09 Q1029 NOSIG
VFR 12°C / 8°C 70º variable 030º to 110º 4kt >10km - Few Clouds 2000ft 1029 No Significant change LOWI 220720Z 07004KT 030V110 9999 FEW020 BKN035 12/08 Q1029 NOSIG
VFR 11°C / 8°C variable 1kt >10km - Scattered Clouds 2000ft 1029 No Significant change LOWI 220650Z VRB01KT 9999 SCT020 BKN040 11/08 Q1029 NOSIG
VFR 11°C / 8°C variable 0kt >10km - Scattered Clouds 2000ft 1029 No Significant change LOWI 220620Z 00000KT 9999 SCT020 BKN040 11/08 Q1029 NOSIG
VFR 11°C / 8°C variable 1kt >10km - Scattered Clouds 2000ft 1029 No Significant change LOWI 220550Z VRB01KT 9999 SCT020 BKN040 11/08 Q1029 NOSIG
MVFR 11°C / 8°C variable 2kt >10km - Broken Clouds 2600ft 1029 No Significant change LOWI 220520Z VRB02KT 9999 BKN026 11/08 Q1029 NOSIG
MVFR 11°C / 8°C 90º variable 050º to 130º 3kt >10km - Overcast 2500ft 1029 No Significant change LOWI 220450Z 09003KT 050V130 9999 OVC025 11/08 Q1029 NOSIG
MVFR 11°C / 8°C 100º variable 060º to 120º 3kt >10km - Overcast 2500ft 1028 No Significant change LOWI 220420Z 10003KT 060V120 9999 OVC025 11/08 Q1028 NOSIG

VFR

16°C / 9°C

[Más]
Viento 90º variable 060º to 120º 7kt
Visibilidad >10km
Tiempo -
Nubes Few Clouds 6000ft
Presión 1025
Cambiar No Significant change
Bruto LOWI 221550Z 09007KT 060V120 9999 FEW060 16/09 Q1025 NOSIG

VFR

17°C / 8°C

[Más]
Viento 80º variable 050º to 120º 9kt
Visibilidad >10km
Tiempo -
Nubes Few Clouds 6000ft
Presión 1025
Cambiar No Significant change
Bruto LOWI 221520Z 08009KT 050V120 9999 FEW060 17/08 Q1025 NOSIG

VFR

17°C / 8°C

[Más]
Viento 70º variable 040º to 100º 10kt
Visibilidad >10km
Tiempo -
Nubes Few Clouds 6000ft
Presión 1026
Cambiar No Significant change
Bruto LOWI 221450Z 07010KT 040V100 9999 FEW060 17/08 Q1026 NOSIG

VFR

18°C / 8°C

[Más]
Viento 70º variable 050º to 110º 11kt
Visibilidad >10km
Tiempo -
Nubes Few Clouds 6000ft
Presión 1025
Cambiar No Significant change
Bruto LOWI 221420Z 07011KT 050V110 9999 FEW060 18/08 Q1025 NOSIG

VFR

18°C / 8°C

[Más]
Viento 80º variable 040º to 140º 6kt
Visibilidad >10km
Tiempo -
Nubes Few Clouds 6000ft
Presión 1025
Cambiar No Significant change
Bruto LOWI 221350Z 08006KT 040V140 9999 FEW060 18/08 Q1025 NOSIG

VFR

19°C / 9°C

[Más]
Viento 70º variable 040º to 100º 6kt
Visibilidad >10km
Tiempo -
Nubes Few Clouds 5000ft
Presión 1026
Cambiar No Significant change
Bruto LOWI 221320Z 07006KT 040V100 9999 FEW050 19/09 Q1026 NOSIG

VFR

18°C / 7°C

[Más]
Viento 80º variable 010º to 120º 5kt
Visibilidad >10km
Tiempo -
Nubes Few Clouds 5000ft
Presión 1026
Cambiar No Significant change
Bruto LOWI 221250Z 08005KT 010V120 9999 FEW050 18/07 Q1026 NOSIG

VFR

18°C / 8°C

[Más]
Viento 110º variable 040º to 180º 5kt
Visibilidad >10km
Tiempo -
Nubes Few Clouds 4500ft
Presión 1026
Cambiar No Significant change
Bruto LOWI 221220Z 11005KT 040V180 9999 FEW045 18/08 Q1026 NOSIG

VFR

18°C / 8°C

[Más]
Viento variable 2kt
Visibilidad >10km
Tiempo -
Nubes Few Clouds 4500ft
Presión 1027
Cambiar No Significant change
Bruto LOWI 221150Z VRB02KT 9999 FEW045 18/08 Q1027 NOSIG

VFR

17°C / 8°C

[Más]
Viento variable 3kt
Visibilidad >10km
Tiempo -
Nubes Few Clouds 4500ft
Presión 1027
Cambiar No Significant change
Bruto LOWI 221120Z VRB03KT 9999 FEW045 17/08 Q1027 NOSIG

VFR

16°C / 7°C

[Más]
Viento variable 2kt
Visibilidad >10km
Tiempo -
Nubes Few Clouds 4000ft
Presión 1027
Cambiar No Significant change
Bruto LOWI 221050Z VRB02KT 9999 FEW040 16/07 Q1027 NOSIG

VFR

16°C / 9°C

[Más]
Viento variable 2kt
Visibilidad >10km
Tiempo -
Nubes Few Clouds 3500ft
Presión 1028
Cambiar No Significant change
Bruto LOWI 221020Z VRB02KT 9999 FEW035 16/09 Q1028 NOSIG

VFR

15°C / 8°C

[Más]
Viento variable 2kt
Visibilidad >10km
Tiempo -
Nubes Few Clouds 3000ft
Presión 1028
Cambiar No Significant change
Bruto LOWI 220950Z VRB02KT 9999 FEW030 15/08 Q1028 NOSIG

VFR

14°C / 8°C

[Más]
Viento variable 1kt
Visibilidad >10km
Tiempo -
Nubes Few Clouds 3000ft
Presión 1028
Cambiar No Significant change
Bruto LOWI 220920Z VRB01KT 9999 FEW030 14/08 Q1028 NOSIG

VFR

14°C / 8°C

[Más]
Viento variable 1kt
Visibilidad >10km
Tiempo -
Nubes Scattered Clouds 3000ft
Presión 1029
Cambiar No Significant change
Bruto LOWI 220850Z VRB01KT 9999 SCT030 14/08 Q1029 NOSIG

VFR

14°C / 8°C

[Más]
Viento variable 2kt
Visibilidad >10km
Tiempo -
Nubes Scattered Clouds 2500ft
Presión 1029
Cambiar No Significant change
Bruto LOWI 220820Z VRB02KT 9999 SCT025 14/08 Q1029 NOSIG

VFR

13°C / 9°C

[Más]
Viento 100º variable 060º to 130º 4kt
Visibilidad >10km
Tiempo -
Nubes Few Clouds 1500ft
Presión 1029
Cambiar No Significant change
Bruto LOWI 220750Z 10004KT 060V130 9999 FEW015 BKN040 13/09 Q1029 NOSIG

VFR

12°C / 8°C

[Más]
Viento 70º variable 030º to 110º 4kt
Visibilidad >10km
Tiempo -
Nubes Few Clouds 2000ft
Presión 1029
Cambiar No Significant change
Bruto LOWI 220720Z 07004KT 030V110 9999 FEW020 BKN035 12/08 Q1029 NOSIG

VFR

11°C / 8°C

[Más]
Viento variable 1kt
Visibilidad >10km
Tiempo -
Nubes Scattered Clouds 2000ft
Presión 1029
Cambiar No Significant change
Bruto LOWI 220650Z VRB01KT 9999 SCT020 BKN040 11/08 Q1029 NOSIG

VFR

11°C / 8°C

[Más]
Viento variable 0kt
Visibilidad >10km
Tiempo -
Nubes Scattered Clouds 2000ft
Presión 1029
Cambiar No Significant change
Bruto LOWI 220620Z 00000KT 9999 SCT020 BKN040 11/08 Q1029 NOSIG

VFR

11°C / 8°C

[Más]
Viento variable 1kt
Visibilidad >10km
Tiempo -
Nubes Scattered Clouds 2000ft
Presión 1029
Cambiar No Significant change
Bruto LOWI 220550Z VRB01KT 9999 SCT020 BKN040 11/08 Q1029 NOSIG

MVFR

11°C / 8°C

[Más]
Viento variable 2kt
Visibilidad >10km
Tiempo -
Nubes Broken Clouds 2600ft
Presión 1029
Cambiar No Significant change
Bruto LOWI 220520Z VRB02KT 9999 BKN026 11/08 Q1029 NOSIG

MVFR

11°C / 8°C

[Más]
Viento 90º variable 050º to 130º 3kt
Visibilidad >10km
Tiempo -
Nubes Overcast 2500ft
Presión 1029
Cambiar No Significant change
Bruto LOWI 220450Z 09003KT 050V130 9999 OVC025 11/08 Q1029 NOSIG

MVFR

11°C / 8°C

[Más]
Viento 100º variable 060º to 120º 3kt
Visibilidad >10km
Tiempo -
Nubes Overcast 2500ft
Presión 1028
Cambiar No Significant change
Bruto LOWI 220420Z 10003KT 060V120 9999 OVC025 11/08 Q1028 NOSIG

TAF a Innsbruck (LOWI)

From till


Maximum Temperature 19ºC on . Minimum Temperature 6ºC on .
From till Wind 90º 8kt. Visibility 10km or more. Few Clouds 3000ft.
Becoming from till Wind variable 2kt. Visibility 10km or more. Few Clouds 3000ft.
From till Wind 270º 3kt. Visibility 10km or more. Broken Clouds 3000ft.
From till Wind 90º 8kt. Visibility 10km or more. Few Clouds 3000ft.

Bruto: TAF LOWI 221115Z 2212/2312 09008KT 9999 FEW030 TX19/2312Z TN06/2305Z BECMG 2216/2218 VRB02KT FM222200 27003KT 9999 BKN030 FM231000 09008KT 9999 FEW030

Imágenes actuales de satélite y lluvia para Innsbruck, Austria

El marcador de lugar se coloca en Innsbruck. [Más]

La imagen de satélite en tiempo real se aprovecha de la combinación de bandas de la luz visible y de la luz infrarrojo. Como se puede detectar cambios de temperaturas atreves de la banda infrarrojo, la imagen no está escura de noche. No obstante, la niebla y las nubes bajas son apenas visibles en las imágenes infrarrojo como las diferencias de temperaturas entre el suelo y la niebla son muy pequeñas. Por eso son casi invisibles durante la noche. Las imágenes de satélite del Meteosat (Europa) son actualizados en tiempo real cada 5 minutos. Las imágenes del GOES-16/GOES-17 (América del Norte y América del Sur) y Himawari (Asia) son actualizados cada 10 minutos.

La precipitación se estima a partir de radares y satélites. Estimaciones de precipitación de la noche de los satélites son menos precisas que durante el día. Cruces naranjas identifican lugares donde relámpagos fueron detectados (en Europa).

Copyright 2021 EUMETSAT / meteoblue. Datos de relámpagos proporcionados por nowcast.

Radar para Innsbruck

llovizna
Leve
Moderado
Fuerte
Muy fuerte
Granizo

El marcador de lugar se coloca en Innsbruck. Esta animación muestra lo radar de precipitaciones hasta la última hora, así como la 2h previsión. Las lloviznas o las nevadas ligeras pueden ser invisibles para el radar. La intensidad de la precipitación está codificada por colores, que van del azul claro al naranja.
Copyright 2021 Deutscher Wetterdienst / meteoblue.

Situación meteorológica actual y advertencias

EUMETNET – MeteoAlarm

pictomap

Fuente: ZAMG

Los retrasos de tiempo entre este sitio web y www.meteoalarm.eu son posibles. Para obtener la información más actualizada sobre los niveles de alerta según lo publicado por los Servicios Meteorológicos Nacionales participantes, por favor, utilice www.meteoalarm.eu.